Location: Lombard
(41.8800°N, 88.0080°W)
Time: 07:11:37
(UTC-05:00)

A-11 Canister half - Pass Details

Date: 27 April 2025
Orbit: 1514 x 1685 km, 47.2° (Epoch: 13 May)

Event Time Altitude Azimuth Distance (km) Brightness Sun altitude
Exits shadow 03:33:45 - 165° (SSE) 4,400 11.1 -22.6°
Reaches altitude 10° 03:38:17 10° 142° (SE) 3,669 10.9 -22.0°
Maximum altitude 03:41:21 12° 122° (ESE) 3,508 11.0 -21.6°
Drops below altitude 10° 03:44:24 10° 102° (ESE) 3,671 11.4 -21.2°
Sets 03:50:06 0° 75° (ENE) 4,668 12.6 -20.4°
